[[{"header":{"parameterUnit":"m.s-1","parameterCategory":1,"la1":30.2991,"la2":30.254,"lo1":-89.0895,"lo2":-89.0444,"dy":0.0017,"dx":0.0017,"nx":28,"ny":28,"refTime":"2024-03-26T09:00:00:Z","depth":0,"parameterNumber":2,"parameterNumberName":"U-component_of_WINDS"},"data":[0,0,0,0,0,0,0,0,0,0,0,0,0,0,0,0,0,0,0,0,0,0,0,0,0,0,0,0,0,0,0,0,0,0,0,0,0,0,0,0,0,0,0,0,0,0,0,0,0,0,0,0,0,0,0,0,0,0,-0.1084,-0.1084,0,-0.1053,-0.1052,-0.1052,-0.1059,-0.106,-0.1061,-0.1061,-0.1024,-0.1023,-0.1021,0,0,0,0,0,0,0,0,0,0,0,0,0,-0.1149,-0.1148,-0.1084,-0.1084,-0.1084,-0.1053,-0.1052,-0.1052,-0.1059,-0.106,-0.1061,-0.1061,-0.1025,-0.1023,-0.1021,0,0,0,0,0,0,0,0,0,0,0,0,0,-0.1119,-0.1147,-0.1085,-0.1084,-0.1083,-0.1053,-0.1052,-0.1052,-0.1059,-0.106,-0.1061,-0.1062,-0.1026,-0.1023,-0.1021,-0.0988,0,0,-0.1014,-0.1013,0,0,0,0,0,0,0,0,-0.1121,-0.1117,-0.1084,-0.1084,-0.1083,-0.1061,-0.1061,-0.103,-0.1059,-0.1068,-0.1061,-0.1062,-0.1036,-0.1032,-0.1024,-0.0986,-0.0985,-0.1014,-0.1012,-0.1011,-0.1011,0,0,0,0,0,0,0,-0.1123,-0.1118,-0.1072,-0.1084,-0.1083,-0.1084,-0.1081,-0.1056,-0.1047,-0.1067,-0.1068,-0.1064,-0.1035,-0.1027,-0.1023,-0.0984,-0.1014,-0.1012,-0.101,-0.1009,-0.0918,-0.0917,0,0,0,0,0,0,-0.1126,-0.112,-0.1073,-0.1071,-0.1105,-0.1082,-0.1079,-0.1067,-0.1047,-0.1045,-0.1063,-0.1065,-0.103,-0.1026,-0.1022,-0.0982,-0.1011,-0.1009,-0.1008,-0.0919,-0.0918,-0.0917,0,0,0,0,0,0,-0.1127,-0.1122,-0.1074,-0.1095,-0.109,-0.108,-0.1067,-0.1066,-0.1057,-0.1044,-0.1042,-0.1056,-0.1031,-0.1026,-0.0997,-0.0981,-0.1008,-0.1006,-0.092,-0.0919,-0.0917,-0.0903,0,0,0,0,0,0,-0.1129,-0.1122,-0.111,-0.1095,-0.1088,-0.105,-0.1066,-0.1065,-0.1054,-0.1055,-0.1037,-0.1035,-0.1031,-0.1,-0.0995,-0.0979,-0.1004,-0.0922,-0.092,-0.0918,-0.0904,-0.0901,-0.0898,0,0,0,0,0,-0.1131,-0.1106,-0.1109,-0.1103,-0.1073,-0.1049,-0.1045,-0.1042,-0.1052,-0.104,-0.1032,-0.1035,-0.0984,-0.0997,-0.0991,-0.0974,-0.0922,-0.092,-0.0918,-0.0906,-0.0901,-0.0898,0,0,0,0,0,0,-0.1117,-0.1104,-0.1107,-0.1077,-0.1064,-0.105,-0.1034,-0.1038,-0.1021,-0.1022,-0.1019,-0.1015,-0.0985,-0.0977,-0.0992,-0.0941,-0.0955,-0.0951,-0.0948,-0.0943,-0.094,-0.0942,-0.1002,0,0,0,0,0,-0.1111,-0.1093,-0.1082,-0.1056,-0.105,-0.1043,-0.1033,-0.1032,-0.1018,-0.1012,-0.1002,-0.0988,-0.0968,-0.0956,-0.0937,-0.0904,-0.09,-0.0889,-0.0886,-0.0883,-0.0879,-0.0861,-0.0856,-0.0909,-0.0909,-0.0909,0,0,-0.1097,-0.1087,-0.1076,-0.1053,-0.1044,-0.1025,-0.1039,-0.1018,-0.1004,-0.1009,-0.0982,-0.0974,-0.0957,-0.0926,-0.0912,-0.0918,-0.0864,-0.088,-0.0878,-0.0876,-0.0858,-0.0853,-0.0849,-0.0908,-0.0908,-0.0908,0,0,-0.1062,-0.1053,-0.1031,-0.1021,-0.1007,-0.1003,-0.0998,-0.0984,-0.0979,-0.0952,-0.0956,-0.0939,-0.0905,-0.0894,-0.0883,-0.0846,-0.0849,-0.084,-0.0822,-0.0804,-0.08,-0.0796,-0.0783,-0.0778,-0.0837,-0.0837,-0.0837,0,-0.1045,-0.1018,-0.1019,-0.0998,-0.0988,-0.0994,-0.0971,-0.0961,-0.0941,-0.0933,-0.0941,-0.09,-0.089,-0.0856,-0.0847,-0.0839,-0.0832,-0.0841,-0.0801,-0.0797,-0.0794,-0.0781,-0.0775,-0.0836,-0.0836,-0.0836,-0.0836,0,-0.0999,-0.0981,-0.0964,-0.0947,-0.0935,-0.0913,-0.0909,-0.0897,-0.0898,-0.0892,-0.0865,-0.0853,-0.0832,-0.0824,-0.0824,-0.0791,-0.0795,-0.0802,-0.0815,-0.0788,-0.0775,-0.077,-0.0834,-0.0835,-0.0835,-0.0835,0,0,-0.0952,-0.0937,-0.0931,-0.0923,-0.0909,-0.0894,-0.0872,-0.0854,-0.0843,-0.083,-0.0811,-0.0784,-0.0791,-0.0779,-0.0778,-0.0763,-0.0734,-0.0771,-0.0771,-0.0764,-0.0696,-0.069,-0.0685,-0.0736,-0.0735,-0.0734,-0.0697,0,-0.0916,-0.088,-0.088,-0.0846,-0.0829,-0.0835,-0.0816,-0.0805,-0.08,-0.0784,-0.0778,-0.0759,-0.0769,-0.0762,-0.0748,-0.074,-0.072,-0.0743,-0.0717,-0.0717,-0.0721,-0.0678,-0.0672,-0.0637,-0.0692,-0.0692,-0.0691,0,-0.0867,-0.0854,-0.0819,-0.0809,-0.0801,-0.0785,-0.0768,-0.0753,-0.074,-0.0738,-0.0726,-0.0728,-0.0705,-0.072,-0.0689,-0.0705,-0.0695,-0.069,-0.0688,-0.0685,-0.0701,-0.0673,-0.0626,-0.0621,-0.0683,-0.0684,-0.0684,0,-0.0836,-0.081,-0.0786,-0.0779,-0.0766,-0.0754,-0.0748,-0.0736,-0.0726,-0.0711,-0.0704,-0.0686,-0.0676,-0.0663,-0.0659,-0.067,-0.0628,-0.0642,-0.0624,-0.0624,-0.0614,-0.0614,-0.0564,-0.0609,-0.0609,-0.0609,-0.0609,0,-0.0795,-0.0773,-0.0772,-0.0756,-0.0732,-0.0733,-0.0708,-0.0703,-0.0693,-0.0676,-0.0681,-0.0665,-0.0662,-0.0645,-0.0642,-0.0616,-0.0612,-0.0608,-0.0608,-0.0607,-0.0608,-0.06,-0.0602,-0.0607,-0.0608,-0.0608,-0.0608,0,-0.0755,-0.0754,-0.0728,-0.0718,-0.0715,-0.0698,-0.0689,-0.0675,-0.0671,-0.065,-0.0645,-0.0639,-0.062,-0.0615,-0.0592,-0.059,-0.0559,-0.0561,-0.0564,-0.0564,-0.0545,-0.0547,-0.0488,-0.048,-0.053,-0.053,-0.0529,0,-0.0728,-0.0712,-0.0701,-0.0692,-0.0685,-0.0669,-0.0659,-0.0659,-0.0648,-0.0633,-0.062,-0.0602,-0.0587,-0.0555,-0.0548,-0.053,-0.0531,-0.0512,-0.0528,-0.0529,-0.053,-0.053,-0.0529,-0.0508,-0.0507,-0.0507,-0.0506,0,-0.068,-0.0681,-0.0667,-0.0653,-0.0641,-0.0629,-0.0618,-0.0609,-0.0608,-0.0595,-0.0576,-0.0565,-0.0542,-0.0523,-0.0506,-0.0498,-0.0501,-0.0502,-0.0496,-0.0495,-0.0497,-0.0495,-0.0554,-0.0503,-0.0503,-0.0503,-0.0503,-0.0504,-0.0646,-0.0632,-0.0623,-0.0607,-0.0599,-0.0589,-0.0575,-0.0571,-0.0556,-0.0538,-0.0539,-0.0519,-0.0507,-0.0484,-0.0476,-0.0459,-0.0464,-0.0457,-0.0455,-0.0453,-0.0451,-0.0501,-0.0455,-0.0456,-0.0456,-0.0456,-0.0456,0,-0.0598,-0.0593,-0.0578,-0.0564,-0.0552,-0.0558,-0.0547,-0.0535,-0.0518,-0.0508,-0.0494,-0.0472,-0.0454,-0.0447,-0.0429,-0.0417,-0.0418,-0.0412,-0.0412,-0.041,-0.0447,-0.0453,-0.0411,-0.0412,-0.0412,-0.0412,-0.0412,-0.0412,-0.0571,-0.0548,-0.0548,-0.0521,-0.0516,-0.0497,-0.049,-0.048,-0.0472,-0.0449,-0.0435,-0.0431,-0.0421,-0.0403,-0.0387,-0.0385,-0.0378,-0.0371,-0.037,-0.0403,-0.0408,-0.0412,-0.0418,-0.037,-0.037,-0.0335,-0.0334,-0.0334]},{"header":{"parameterUnit":"m.s-1","parameterCategory":1,"la1":30.2991,"la2":30.254,"lo1":-89.0895,"lo2":-89.0444,"dy":0.0017,"dx":0.0017,"nx":28,"ny":28,"refTime":"2024-03-26T09:00:00:Z","depth":0,"parameterNumber":3,"parameterNumberName":"V-component_of_WINDS"},"data":[0,0,0,0,0,0,0,0,0,0,0,0,0,0,0,0,0,0,0,0,0,0,0,0,0,0,0,0,0,0,0,0,0,0,0,0,0,0,0,0,0,0,0,0,0,0,0,0,0,0,0,0,0,0,0,0,0,0,-2.2755,-2.2757,0,-2.2923,-2.2925,-2.2927,-2.2973,-2.2972,-2.2971,-2.297,-2.314,-2.3145,-2.315,0,0,0,0,0,0,0,0,0,0,0,0,0,-2.2472,-2.2477,-2.2755,-2.2757,-2.276,-2.2923,-2.2925,-2.2928,-2.2973,-2.2972,-2.2971,-2.2969,-2.3138,-2.3144,-2.3151,0,0,0,0,0,0,0,0,0,0,0,0,0,-2.2613,-2.2478,-2.2755,-2.2802,-2.2808,-2.2923,-2.2925,-2.2928,-2.2973,-2.2972,-2.297,-2.2969,-2.3136,-2.3144,-2.3152,-2.3231,0,0,-2.3176,-2.318,0,0,0,0,0,0,0,0,-2.2605,-2.2623,-2.2793,-2.2799,-2.2806,-2.2926,-2.2888,-2.303,-2.2974,-2.291,-2.297,-2.2968,-2.3069,-2.3083,-2.3118,-2.3239,-2.3246,-2.3177,-2.3182,-2.3186,-2.3188,0,0,0,0,0,0,0,-2.2595,-2.2616,-2.2822,-2.2795,-2.2803,-2.2814,-2.2832,-2.2915,-2.2996,-2.2916,-2.2919,-2.2939,-2.3073,-2.311,-2.3122,-2.3249,-2.3177,-2.3184,-2.3189,-2.3192,-2.3444,-2.3446,0,0,0,0,0,0,-2.2577,-2.2608,-2.2816,-2.2827,-2.27,-2.282,-2.2841,-2.2889,-2.2995,-2.301,-2.294,-2.294,-2.3096,-2.3112,-2.3128,-2.3229,-2.3186,-2.3193,-2.3198,-2.3442,-2.3444,-2.3446,0,0,0,0,0,0,-2.2571,-2.2595,-2.281,-2.2718,-2.2746,-2.2827,-2.288,-2.2893,-2.293,-2.3013,-2.3028,-2.2963,-2.3096,-2.3117,-2.3205,-2.3235,-2.3197,-2.3204,-2.344,-2.3443,-2.3445,-2.343,0,0,0,0,0,0,-2.2563,-2.2593,-2.2624,-2.2719,-2.2751,-2.2885,-2.2882,-2.2897,-2.2944,-2.2946,-2.3039,-2.3053,-2.3096,-2.3193,-2.3213,-2.3246,-2.3211,-2.3438,-2.3441,-2.3444,-2.3428,-2.3431,-2.3435,0,0,0,0,0,-2.2552,-2.2613,-2.2626,-2.2651,-2.2792,-2.2886,-2.2905,-2.2954,-2.2946,-2.2978,-2.3032,-2.305,-2.3228,-2.3202,-2.3225,-2.326,-2.3436,-2.344,-2.3444,-2.3426,-2.3431,-2.3434,0,0,0,0,0,0,-2.2519,-2.2626,-2.2642,-2.2735,-2.2801,-2.2894,-2.2936,-2.2957,-2.3027,-2.3026,-2.3084,-2.3104,-2.3189,-2.3233,-2.3202,-2.3343,-2.3332,-2.3341,-2.3311,-2.3316,-2.3319,-2.3307,-2.3217,0,0,0,0,0,-2.2523,-2.2591,-2.268,-2.2753,-2.2786,-2.2855,-2.2898,-2.293,-2.3001,-2.3029,-2.309,-2.3157,-2.3229,-2.3274,-2.3345,-2.3434,-2.3455,-2.347,-2.3473,-2.3475,-2.3483,-2.3534,-2.3541,-2.346,-2.346,-2.3459,0,0,-2.2531,-2.2597,-2.2637,-2.2749,-2.2804,-2.2873,-2.2879,-2.2951,-2.3002,-2.304,-2.3128,-2.3175,-2.3254,-2.3343,-2.3386,-2.3383,-2.351,-2.3481,-2.3482,-2.3488,-2.3539,-2.3546,-2.3553,-2.3462,-2.3462,-2.3461,0,0,-2.2581,-2.2638,-2.2706,-2.2761,-2.2845,-2.2891,-2.2907,-2.2997,-2.3029,-2.3118,-2.3148,-2.321,-2.3331,-2.3387,-2.3431,-2.3501,-2.3521,-2.3522,-2.354,-2.3589,-2.3596,-2.3602,-2.3627,-2.3636,-2.3529,-2.3529,-2.3529,0,-2.258,-2.2685,-2.2737,-2.2809,-2.2857,-2.2895,-2.2964,-2.3015,-2.3117,-2.3149,-2.3144,-2.3298,-2.3354,-2.3457,-2.3474,-2.3509,-2.3529,-2.3513,-2.3591,-2.3597,-2.3604,-2.3629,-2.3638,-2.3529,-2.3529,-2.3529,-2.3529,0,-2.268,-2.2753,-2.2797,-2.2896,-2.2949,-2.3019,-2.3081,-2.3128,-2.3155,-2.3201,-2.3291,-2.336,-2.3445,-2.3471,-2.3499,-2.3579,-2.3574,-2.3579,-2.357,-2.361,-2.3635,-2.3645,-2.3529,-2.3529,-2.3529,-2.3529,0,0,-2.2715,-2.2841,-2.2857,-2.2902,-2.2998,-2.3055,-2.3125,-2.321,-2.3249,-2.3318,-2.3379,-2.3481,-2.3486,-2.3536,-2.357,-2.3613,-2.3665,-2.3613,-2.3616,-2.3621,-2.3758,-2.3754,-2.3764,-2.3678,-2.368,-2.3682,-2.3751,0,-2.2777,-2.2907,-2.2955,-2.3061,-2.3129,-2.3165,-2.3227,-2.3292,-2.3336,-2.34,-2.3448,-2.352,-2.3522,-2.3552,-2.3596,-2.3649,-2.3693,-2.3645,-2.3735,-2.3738,-2.3715,-2.3777,-2.3774,-2.3836,-2.3761,-2.3763,-2.3764,0,-2.2868,-2.2939,-2.3051,-2.3139,-2.3169,-2.3224,-2.3304,-2.3365,-2.3439,-2.3468,-2.3524,-2.3555,-2.363,-2.3615,-2.372,-2.3685,-2.3725,-2.3757,-2.376,-2.3771,-2.3754,-2.3791,-2.3858,-2.3867,-2.378,-2.3778,-2.3777,0,-2.2882,-2.3006,-2.3089,-2.3127,-2.3231,-2.3268,-2.3313,-2.3386,-2.3433,-2.3503,-2.3535,-2.3612,-2.3655,-2.3714,-2.3765,-2.3749,-2.3864,-2.3854,-2.3891,-2.389,-2.3914,-2.3912,-2.3989,-2.3938,-2.3938,-2.3938,-2.3938,0,-2.2947,-2.3015,-2.3097,-2.3149,-2.3225,-2.328,-2.3354,-2.3401,-2.3465,-2.3526,-2.3562,-2.3618,-2.3682,-2.3746,-2.3786,-2.3866,-2.3885,-2.3911,-2.3921,-2.3908,-2.3905,-2.3935,-2.3933,-2.394,-2.394,-2.3939,-2.3939,0,-2.2977,-2.3035,-2.3129,-2.3219,-2.3244,-2.3296,-2.3374,-2.3425,-2.347,-2.3547,-2.3568,-2.3639,-2.3717,-2.3773,-2.3873,-2.39,-2.3986,-2.3996,-2.3961,-2.3967,-2.4001,-2.3997,-2.4101,-2.4117,-2.4054,-2.4054,-2.4055,0,-2.3016,-2.3069,-2.3165,-2.3209,-2.3254,-2.3323,-2.3372,-2.3428,-2.3477,-2.3565,-2.3605,-2.3685,-2.3752,-2.3874,-2.3935,-2.4011,-2.4023,-2.4054,-2.4035,-2.4021,-2.4025,-2.4021,-2.4027,-2.4057,-2.4058,-2.4058,-2.4058,0,-2.3078,-2.3104,-2.3173,-2.3253,-2.331,-2.3375,-2.344,-2.3474,-2.354,-2.3594,-2.3674,-2.3726,-2.3828,-2.3907,-2.3989,-2.4034,-2.4058,-2.4064,-2.4076,-2.4065,-2.4043,-2.4056,-2.397,-2.4061,-2.4061,-2.4061,-2.4061,-2.4061,-2.3114,-2.3163,-2.3239,-2.3315,-2.337,-2.343,-2.3483,-2.3535,-2.3603,-2.3691,-2.3719,-2.3802,-2.3874,-2.3988,-2.4034,-2.4099,-2.4098,-2.4116,-2.4121,-2.4125,-2.4125,-2.4032,-2.4114,-2.4114,-2.4114,-2.4114,-2.4114,0,-2.3179,-2.3229,-2.3299,-2.3389,-2.3449,-2.3466,-2.3539,-2.3587,-2.366,-2.3726,-2.3792,-2.3883,-2.396,-2.4026,-2.4106,-2.4145,-2.4158,-2.4164,-2.4163,-2.4173,-2.4121,-2.4102,-2.4153,-2.4153,-2.4153,-2.4153,-2.4153,-2.4153,-2.322,-2.3304,-2.3339,-2.345,-2.35,-2.3582,-2.3622,-2.3678,-2.3731,-2.3832,-2.3896,-2.3939,-2.4006,-2.409,-2.4161,-2.4179,-2.4206,-2.4211,-2.4231,-2.4181,-2.4176,-2.4172,-2.4155,-2.4216,-2.4216,-2.4278,-2.4278,-2.4279]}]]